Last 6 Hours

Alpine-Summit 8643' (Ward Mt.)

15 Minute Data | America/Los_Angeles
as of 5/30/20 9:10 PM PDT
Date & Time Temp (°F) RH (%) Dew Pt (°F) Wet Bulb (°F) Wind Dir (°) Wind Spd (mph) Wind Gust (mph) WindChill (°F)
5/30/20 - 2100 36.2 100 36.2 36.2 N | 3 0.4 3.5 36.4
5/30/20 - 2045 36.5 100 36.5 36.5 N | 3 0.3 2.5 36.6
5/30/20 - 2030 36.6 100 36.6 36.6 N | 2 0.3 2.9 36.5
5/30/20 - 2015 36.4 100 36.4 36.4 N | 4 0.3 3.2 36.4
5/30/20 - 2000 36.4 100 36.4 36.4 N | 5 0.3 3.4 36.0
5/30/20 - 1945 36.0 100 36.0 36.0 N | 6 0.2 2.5 36.0
5/30/20 - 1930 35.8 100 35.8 35.8 N | 5 0.4 2.3 35.8
5/30/20 - 1915 35.9 99 35.6 35.7 N | 4 0.4 3.2 35.9
5/30/20 - 1900 36.1 99 35.9 36.0 N | 3 0.4 3.0 36.2
5/30/20 - 1845 36.2 98 35.6 35.9 N | 6 0.2 4.1 36.4
5/30/20 - 1830 36.8 93 35.0 35.9 N | 5 0.3 4.5 37.4
5/30/20 - 1815 37.8 98 37.4 37.6 N | 4 0.3 2.9 37.0
5/30/20 - 1800 36.8 99 36.4 36.6 N | 5 0.3 2.7 36.9
5/30/20 - 1745 37.1 98 36.7 36.9 N | 3 0.2 4.0 37.5
5/30/20 - 1730 37.8 98 37.2 37.5 N | 4 0.4 3.0 37.9
5/30/20 - 1715 37.7 100 37.6 37.6 N | 2 0.3 2.3 37.3
5/30/20 - 1700 37.2 99 37.0 37.1 N | 3 0.2 2.4 37.1
5/30/20 - 1645 36.9 99 36.6 36.7 N | 3 0.2 2.4 37.4
5/30/20 - 1630 37.7 99 37.5 37.6 N | 4 0.3 1.9 37.8
5/30/20 - 1615 37.8 100 37.7 37.7 N | 4 0.3 4.0 37.2
5/30/20 - 1600 36.7 99 36.5 36.6 N | 3 0.3 2.8 36.6
5/30/20 - 1545 36.5 98 36.0 36.2 N | 2 0.2 1.7 37.3
5/30/20 - 1530 37.9 99 37.6 37.7 N | 2 0.2 2.0 38.3
5/30/20 - 1515 39.0 96 38.0 38.5 N | 2 0.3 2.3 39.3
Max 39.0 100 38.0 38.5 - 0.4 4.5 39.3
Avg 36.9 99 36.6 36.7 - 0.3 2.9 37.0
Min 35.8 93 35.0 35.7 - 0.2 1.7 35.8